Cosmos 1346 Rocket - Orbit

View from above orbital plane
View from above orbital plane
View from above satellite
View from above satellite

Ground track
Ground track

The orbit data is extracted from the following two-line orbital elements,

1 13121U 82027B   13138.13958118  .00002361  00000-0  17094-3 0  1188
2 13121 081.1702 026.7557 0030601 044.0396 316.3255 15.03258546692514
Epoch (UTC): 18 May 2013 03:20:59
Eccentricity: 0.0030601
inclination: 81.1702°
perigee height: 535 km
apogee height: 578 km
right ascension of ascending node: 26.7557°
argument of perigee: 44.0396°
revolutions per day: 15.03258546
mean anomaly at epoch: 316.3255°
orbit number at epoch: 69251

The dashed part of the orbit path shows where the satellite is in the earth's shadow,  

Developed and maintained by Chris Peat, Heavens-Above GmbH. Please read the updated FAQ before sending e-mail. Imprint. DLR